Location: Sungai Anya
(2.6167°N, 114.0500°E)
Time: 19:45:18
(UTC+00:00)

COSMOS 2428 - Pass Details

Date: 19 October 2021
Orbit: 844 x 858 km, 70.9° (Epoch: 08 December)

Event Time Altitude Azimuth Distance (km) Brightness Sun altitude
Rises 11:42:02 0° 184° (S) 3,406 6.0 -23.4°
Reaches altitude 10° 11:44:35 10° 177° (S) 2,468 5.2 -24.0°
Enters shadow 11:48:26 37° 146° (SE) 1,291 3.4 -25.0°
